Location: Les Martinières
(47.2667°N, 1.4410°E)
Time: 02:06:20
(UTC+00:00)

Cosmos 1953 Rocket - Pass Details

Date: 15 May 2026
Orbit: 597 x 628 km, 82.5° (Epoch: 8 June)

Event Time Altitude Azimuth Distance (km) Brightness Sun altitude
Rises 22:12:35 0° 348° (NNW) 2,880 8.4 -20.1°
Reaches altitude 10° 22:14:49 10° 346° (NNW) 1,966 7.3 -20.3°
Maximum altitude 22:19:09 70° 263° (W) 646 3.6 -20.6°
Enters shadow 22:20:10 49° 200° (SSW) 781 3.7 -20.6°
